| time (UTC) | temp C | wind direction | speed KPH | gust KPH | rain 1hr cm | rain 24hr cm | rain mn cm | humidity % | barometer mb |
| 20260506204710 | 30 | 154 | 6.4 | 12.9 | 0.00 | 0.00 | 0.00 | 84 | 1007.8 |
| 20260506204151 | 30 | 181 | 8.0 | 19.3 | 0.00 | 0.00 | 0.00 | 85 | 1007.8 |
| 20260506203641 | 29 | 196 | 8.0 | 19.3 | 0.00 | 0.00 | 0.00 | 85 | 1007.8 |
| 20260506203136 | 29 | 141 | 6.4 | 12.9 | 0.00 | 0.00 | 0.00 | 85 | 1007.9 |
| 20260506202612 | 30 | 157 | 6.4 | 12.9 | 0.00 | 0.00 | 0.00 | 85 | 1008.0 |
| 20260506202049 | 30 | 191 | 8.0 | 17.7 | 0.00 | 0.00 | 0.00 | 84 | 1008.0 |
| 20260506201539 | 30 | 235 | 8.0 | 17.7 | 0.00 | 0.00 | 0.00 | 83 | 1008.0 |
| 20260506201042 | 30 | 162 | 6.4 | 14.5 | 0.00 | 0.00 | 0.00 | 83 | 1008.1 |
| 20260506200508 | 30 | 109 | 4.8 | 12.9 | 0.00 | 0.00 | 0.00 | 84 | 1008.1 |
| 20260506195943 | 30 | 165 | 6.4 | 19.3 | 0.00 | 0.00 | 0.00 | 84 | 1008.2 |
| 20260506195414 | 30 | 143 | 8.0 | 20.9 | 0.00 | 0.00 | 0.00 | 84 | 1008.2 |
| 20260506194916 | 30 | 162 | 8.0 | 20.9 | 0.00 | 0.00 | 0.00 | 83 | 1008.3 |
| 20260506194356 | 30 | 210 | 9.7 | 24.1 | 0.00 | 0.00 | 0.00 | 83 | 1008.3 |
| 20260506193819 | 30 | 139 | 8.0 | 24.1 | 0.00 | 0.00 | 0.00 | 81 | 1008.3 |
| 20260506193550 | 31 | 191 | 6.4 | 16.1 | 0.00 | 0.00 | 0.00 | 80 | 1008.3 |
| 20260506192749 | 31 | 185 | 6.4 | 16.1 | 0.00 | 0.00 | 0.00 | 80 | 1008.4 |
| 20260506192517 | 31 | 219 | 4.8 | 12.9 | 0.00 | 0.00 | 0.00 | 80 | 1008.4 |
| 20260506191743 | 30 | 216 | 4.8 | 12.9 | 0.00 | 0.00 | 0.00 | 81 | 1008.5 |
| 20260506191215 | 30 | 162 | 4.8 | 14.5 | 0.00 | 0.00 | 0.00 | 82 | 1008.5 |
| 20260506190712 | 30 | 246 | 6.4 | 16.1 | 0.00 | 0.00 | 0.00 | 82 | 1008.6 |
| 20260506190209 | 30 | 210 | 6.4 | 16.1 | 0.00 | 0.00 | 0.00 | 82 | 1008.7 |
| 20260506185937 | 30 | 228 | 6.4 | 14.5 | 0.00 | 0.00 | 0.00 | 82 | 1008.8 |
| 20260506185140 | 30 | 218 | 6.4 | 16.1 | 0.00 | 0.00 | 0.00 | 82 | 1008.8 |
| 20260506184636 | 30 | 161 | 6.4 | 16.1 | 0.00 | 0.00 | 0.00 | 81 | 1008.9 |
| 20260506184133 | 30 | 139 | 6.4 | 16.1 | 0.00 | 0.00 | 0.00 | 82 | 1009.0 |
| 20260506183902 | 30 | 120 | 4.8 | 12.9 | 0.00 | 0.00 | 0.00 | 83 | 1009.0 |
| 20260506183128 | 30 | 169 | 4.8 | 12.9 | 0.00 | 0.00 | 0.00 | 83 | 1009.1 |
| 20260506182623 | 29 | 134 | 6.4 | 12.9 | 0.00 | 0.00 | 0.00 | 84 | 1009.2 |
| 20260506182059 | 29 | 186 | 6.4 | 12.9 | 0.00 | 0.00 | 0.00 | 84 | 1009.3 |
| 20260506181805 | 29 | 149 | 6.4 | 12.9 | 0.00 | 0.00 | 0.00 | 85 | 1009.4 |
| 20260506181027 | 29 | 171 | 6.4 | 12.9 | 0.00 | 0.00 | 0.00 | 85 | 1009.4 |
| 20260506180525 | 29 | 249 | 4.8 | 11.3 | 0.00 | 0.00 | 0.00 | 85 | 1009.6 |
| 20260506175958 | 28 | 158 | 4.8 | 11.3 | 0.00 | 0.00 | 0.00 | 85 | 1009.7 |
| 20260506175431 | 28 | 197 | 4.8 | 11.3 | 0.00 | 0.00 | 0.00 | 85 | 1009.7 |
| 20260506174929 | 28 | 196 | 4.8 | 11.3 | 0.00 | 0.00 | 0.00 | 86 | 1009.8 |
| 20260506174401 | 28 | 164 | 6.4 | 14.5 | 0.00 | 0.00 | 0.00 | 86 | 1009.9 |
| 20260506173857 | 28 | 184 | 6.4 | 14.5 | 0.00 | 0.00 | 0.00 | 86 | 1010.0 |
| 20260506173627 | 28 | 187 | 6.4 | 16.1 | 0.00 | 0.00 | 0.00 | 87 | 1010.0 |
| 20260506172853 | 28 | 152 | 6.4 | 16.1 | 0.00 | 0.00 | 0.00 | 88 | 1010.1 |
| 20260506172327 | 28 | 197 | 6.4 | 14.5 | 0.00 | 0.00 | 0.00 | 88 | 1010.1 |
| 20260506171758 | 28 | 161 | 6.4 | 16.1 | 0.00 | 0.00 | 0.00 | 88 | 1010.1 |
| 20260506171256 | 28 | 152 | 8.0 | 16.1 | 0.00 | 0.00 | 0.00 | 90 | 1010.1 |
| 20260506170752 | 27 | 122 | 8.0 | 16.1 | 0.00 | 0.00 | 0.00 | 91 | 1010.2 |
| 20260506170225 | 27 | 146 | 6.4 | 14.5 | 0.00 | 0.00 | 0.00 | 91 | 1010.2 |
| 20260506165723 | 27 | 153 | 4.8 | 14.5 | 0.00 | 0.00 | 0.00 | 91 | 1010.4 |
| 20260506165159 | 27 | 139 | 4.8 | 12.9 | 0.00 | 0.00 | 0.00 | 91 | 1010.4 |
| 20260506164633 | 27 | 106 | 4.8 | 12.9 | 0.00 | 0.00 | 0.00 | 91 | 1010.3 |
| 20260506164108 | 27 | 137 | 6.4 | 16.1 | 0.00 | 0.00 | 0.00 | 91 | 1010.3 |
| 20260506163546 | 27 | 179 | 6.4 | 16.1 | 0.00 | 0.00 | 0.00 | 91 | 1010.3 |
| 20260506163048 | 27 | 141 | 6.4 | 14.5 | 0.00 | 0.00 | 0.00 | 92 | 1010.2 |
| 20260506162528 | 27 | 156 | 3.2 | 14.5 | 0.00 | 0.00 | 0.00 | 92 | 1010.1 |
| 20260506162006 | 27 | 108 | 3.2 | 12.9 | 0.00 | 0.00 | 0.00 | 93 | 1010.1 |
| 20260506161455 | 26 | 148 | 4.8 | 12.9 | 0.00 | 0.00 | 0.00 | 92 | 1009.9 |
| 20260506161225 | 26 | 174 | 4.8 | 12.9 | 0.00 | 0.00 | 0.00 | 92 | 1010.1 |
| 20260506160444 | 26 | 130 | 4.8 | 12.9 | 0.00 | 0.00 | 0.00 | 92 | 1010.0 |
| 20260506155941 | 27 | 136 | 4.8 | 12.9 | 0.00 | 0.00 | 0.00 | 91 | 1010.0 |
| 20260506155439 | 27 | 144 | 4.8 | 12.9 | 0.00 | 0.00 | 0.00 | 91 | 1009.9 |
| 20260506154939 | 27 | 149 | 4.8 | 11.3 | 0.00 | 0.00 | 0.00 | 91 | 1009.9 |
| 20260506154443 | 27 | 173 | 3.2 | 11.3 | 0.00 | 0.00 | 0.00 | 91 | 1009.8 |
| 20260506153920 | 27 | 131 | 3.2 | 11.3 | 0.00 | 0.00 | 0.00 | 91 | 1009.8 |
| 20260506153648 | 27 | 127 | 4.8 | 11.3 | 0.00 | 0.00 | 0.00 | 91 | 1009.9 |
| 20260506152918 | 27 | 172 | 4.8 | 16.1 | 0.00 | 0.00 | 0.00 | 91 | 1009.7 |
| 20260506152353 | 27 | 169 | 4.8 | 12.9 | 0.00 | 0.00 | 0.00 | 91 | 1009.6 |
| 20260506152126 | 26 | 189 | 4.8 | 11.3 | 0.00 | 0.00 | 0.00 | 92 | 1009.5 |
| 20260506151327 | 26 | 138 | 6.4 | 12.9 | 0.00 | 0.00 | 0.00 | 92 | 1009.5 |
| 20260506150803 | 26 | 127 | 4.8 | 16.1 | 0.00 | 0.00 | 0.00 | 92 | 1009.5 |
| 20260506150304 | 26 | 137 | 4.8 | 16.1 | 0.00 | 0.00 | 0.00 | 92 | 1009.3 |
| 20260506150018 | 26 | 169 | 6.4 | 14.5 | 0.00 | 0.00 | 0.00 | 92 | 1009.3 |
| 20260506145244 | 26 | 141 | 6.4 | 14.5 | 0.00 | 0.00 | 0.00 | 92 | 1009.2 |
| 20260506144951 | 26 | 154 | 6.4 | 12.9 | 0.00 | 0.00 | 0.00 | 93 | 1009.1 |
| 20260506144154 | 26 | 167 | 6.4 | 14.5 | 0.00 | 0.00 | 0.00 | 93 | 1009.0 |
| 20260506143921 | 26 | 142 | 6.4 | 14.5 | 0.00 | 0.00 | 0.00 | 93 | 1009.0 |
| 20260506143145 | 26 | 177 | 8.0 | 22.5 | 0.00 | 0.00 | 0.00 | 94 | 1009.0 |
| 20260506142619 | 26 | 137 | 9.7 | 22.5 | 0.00 | 0.00 | 0.00 | 94 | 1008.9 |
| 20260506142118 | 26 | 148 | 8.0 | 19.3 | 0.00 | 0.00 | 0.00 | 94 | 1008.9 |
| 20260506141550 | 26 | 146 | 8.0 | 16.1 | 0.00 | 0.00 | 0.00 | 95 | 1009.0 |
| 20260506141048 | 26 | 157 | 8.0 | 16.1 | 0.00 | 0.00 | 0.00 | 95 | 1009.1 |
| 20260506140520 | 26 | 114 | 6.4 | 16.1 | 0.00 | 0.00 | 0.00 | 96 | 1009.1 |
| 20260506140017 | 26 | 139 | 6.4 | 14.5 | 0.00 | 0.00 | 0.00 | 96 | 1009.1 |
| 20260506135450 | 25 | 166 | 6.4 | 14.5 | 0.00 | 0.00 | 0.00 | 97 | 1009.1 |
| 20260506134947 | 25 | 136 | 6.4 | 14.5 | 0.00 | 0.00 | 0.00 | 97 | 1009.2 |
| 20260506134421 | 25 | 127 | 4.8 | 12.9 | 0.00 | 0.00 | 0.00 | 97 | 1009.2 |
| 20260506133918 | 25 | 131 | 4.8 | 12.9 | 0.00 | 0.00 | 0.00 | 97 | 1009.2 |
| 20260506133350 | 25 | 158 | 3.2 | 12.9 | 0.00 | 0.00 | 0.00 | 98 | 1009.2 |
| 20260506132848 | 25 | 126 | 1.6 | 8.0 | 0.00 | 0.00 | 0.00 | 98 | 1009.3 |
| 20260506132320 | 25 | 126 | 3.2 | 8.0 | 0.00 | 0.00 | 0.00 | 98 | 1009.3 |
| 20260506131818 | 25 | 129 | 3.2 | 12.9 | 0.00 | 0.00 | 0.00 | 98 | 1009.2 |
| 20260506131314 | 25 | 125 | 3.2 | 12.9 | 0.00 | 0.00 | 0.00 | 98 | 1009.3 |
| 20260506130811 | 25 | 178 | 3.2 | 11.3 | 0.00 | 0.00 | 0.00 | 98 | 1009.4 |
| 20260506130244 | 25 | 133 | 3.2 | 11.3 | 0.00 | 0.00 | 0.00 | 99 | 1009.4 |
| 20260506130013 | 25 | 133 | 3.2 | 8.0 | 0.00 | 0.00 | 0.00 | 99 | 1009.4 |
| 20260506125214 | 25 | 135 | 3.2 | 8.0 | 0.00 | 0.00 | 0.00 | 99 | 1009.3 |
| 20260506124711 | 25 | 146 | 1.6 | 6.4 | 0.00 | 0.00 | 0.00 | 99 | 1009.3 |
| 20260506124650 | 25 | 168 | 1.6 | 14.5 | 0.00 | 0.00 | 0.00 | 99 | 1009.3 |
| 20260506123641 | 25 | 172 | 4.8 | 14.5 | 0.00 | 0.00 | 0.00 | 99 | 1009.2 |
| 20260506123115 | 25 | 141 | 4.8 | 14.5 | 0.00 | 0.00 | 0.00 | 99 | 1009.2 |
| 20260506122612 | 25 | 127 | 4.8 | 14.5 | 0.00 | 0.00 | 0.00 | 99 | 1009.2 |
| 20260506122108 | 25 | 141 | 3.2 | 11.3 | 0.00 | 0.00 | 0.00 | 99 | 1009.1 |
| 20260506121837 | 25 | 155 | 3.2 | 8.0 | 0.00 | 0.00 | 0.00 | 99 | 1009.0 |
| 20260506121038 | 24 | 158 | 1.6 | 8.0 | 0.00 | 0.00 | 0.00 | 99 | 1008.9 |
| 20260506120535 | 24 | 127 | 3.2 | 9.7 | 0.00 | 0.00 | 0.00 | 99 | 1008.8 |
| 20260506120016 | 24 | 171 | 3.2 | 11.3 | 0.00 | 0.00 | 0.00 | 99 | 1008.8 |
| 20260506115506 | 24 | 160 | 3.2 | 11.3 | 0.00 | 0.00 | 0.00 | 99 | 1008.7 |
| 20260506114940 | 24 | 152 | 4.8 | 17.7 | 0.00 | 0.00 | 0.00 | 99 | 1008.6 |
| 20260506114415 | 24 | 151 | 6.4 | 17.7 | 0.00 | 0.00 | 0.00 | 99 | 1008.5 |
| 20260506113844 | 24 | 163 | 6.4 | 16.1 | 0.00 | 0.00 | 0.00 | 99 | 1008.5 |
| 20260506113341 | 24 | 149 | 6.4 | 12.9 | 0.00 | 0.00 | 0.00 | 99 | 1008.4 |
| 20260506112814 | 24 | 162 | 4.8 | 12.9 | 0.00 | 0.00 | 0.00 | 99 | 1008.3 |
| 20260506112311 | 24 | 177 | 4.8 | 12.9 | 0.00 | 0.00 | 0.00 | 99 | 1008.3 |
| 20260506111745 | 24 | 122 | 4.8 | 12.9 | 0.00 | 0.00 | 0.00 | 99 | 1008.2 |
| 20260506111224 | 24 | 135 | 4.8 | 16.1 | 0.00 | 0.00 | 0.00 | 99 | 1008.1 |
| 20260506110721 | 24 | 185 | 4.8 | 16.1 | 0.00 | 0.00 | 0.00 | 99 | 1008.1 |
| 20260506110157 | 24 | 183 | 6.4 | 16.1 | 0.00 | 0.00 | 0.00 | 99 | 1008.1 |
| 20260506105655 | 24 | 182 | 6.4 | 16.1 | 0.00 | 0.00 | 0.00 | 99 | 1008.0 |
| 20260506105157 | 24 | 140 | 6.4 | 16.1 | 0.00 | 0.00 | 0.00 | 99 | 1007.9 |
| 20260506104657 | 24 | 133 | 6.4 | 14.5 | 0.00 | 0.00 | 0.00 | 99 | 1007.9 |
| 20260506104137 | 24 | 147 | 6.4 | 12.9 | 0.00 | 0.00 | 0.00 | 99 | 1007.9 |
| 20260506103636 | 24 | 170 | 6.4 | 14.5 | 0.00 | 0.00 | 0.00 | 99 | 1008.0 |
| 20260506103119 | 24 | 156 | 6.4 | 14.5 | 0.00 | 0.00 | 0.00 | 99 | 1007.9 |
| 20260506102559 | 24 | 131 | 6.4 | 14.5 | 0.00 | 0.00 | 0.00 | 99 | 1007.9 |
| 20260506102057 | 24 | 156 | 6.4 | 14.5 | 0.00 | 0.00 | 0.00 | 99 | 1007.9 |
| 20260506101558 | 24 | 133 | 6.4 | 19.3 | 0.00 | 0.00 | 0.00 | 99 | 1007.9 |
| 20260506101057 | 24 | 174 | 6.4 | 19.3 | 0.00 | 0.00 | 0.00 | 98 | 1007.8 |
| 20260506100555 | 24 | 148 | 8.0 | 19.3 | 0.00 | 0.00 | 0.00 | 98 | 1007.9 |
| 20260506100030 | 24 | 168 | 8.0 | 19.3 | 0.00 | 0.00 | 0.00 | 98 | 1007.9 |
| 20260506095743 | 24 | 145 | 8.0 | 17.7 | 0.00 | 0.00 | 0.00 | 98 | 1007.8 |
| 20260506095017 | 24 | 180 | 6.4 | 17.7 | 0.00 | 0.00 | 0.00 | 98 | 1007.7 |
| 20260506094452 | 24 | 178 | 4.8 | 12.9 | 0.00 | 0.00 | 0.00 | 98 | 1007.7 |
| 20260506093956 | 24 | 144 | 4.8 | 11.3 | 0.00 | 0.00 | 0.00 | 97 | 1007.7 |
| 20260506093935 | 24 | 142 | 4.8 | 12.9 | 0.00 | 0.00 | 0.00 | 97 | 1007.8 |
| 20260506092913 | 24 | 154 | 4.8 | 12.9 | 0.00 | 0.00 | 0.00 | 97 | 1007.7 |
| 20260506092850 | 24 | 170 | 3.2 | 12.9 | 0.00 | 0.00 | 0.00 | 97 | 1007.7 |
| 20260506092115 | 25 | 153 | 3.2 | 9.7 | 0.00 | 0.00 | 0.00 | 97 | 1007.8 |
| 20260506091317 | 25 | 161 | 3.2 | 9.7 | 0.00 | 0.00 | 0.00 | 97 | 1007.9 |
| 20260506090752 | 25 | 164 | 6.4 | 14.5 | 0.00 | 0.00 | 0.00 | 96 | 1007.9 |
| 20260506090253 | 25 | 161 | 6.4 | 14.5 | 0.00 | 0.00 | 0.00 | 96 | 1008.0 |
| 20260506090245 | 25 | 147 | 6.4 | 14.5 | 0.00 | 0.00 | 0.00 | 96 | 1008.0 |
| 20260506085239 | 25 | 166 | 6.4 | 16.1 | 0.00 | 0.00 | 0.00 | 96 | 1008.0 |
| 20260506084735 | 25 | 118 | 6.4 | 16.1 | 0.00 | 0.00 | 0.00 | 96 | 1008.1 |
| 20260506084212 | 25 | 198 | 4.8 | 12.9 | 0.00 | 0.00 | 0.00 | 96 | 1008.1 |
| 20260506083644 | 25 | 199 | 4.8 | 12.9 | 0.00 | 0.00 | 0.00 | 96 | 1008.1 |
| 20260506083119 | 25 | 156 | 4.8 | 12.9 | 0.00 | 0.00 | 0.00 | 96 | 1008.3 |
| 20260506083054 | 25 | 177 | 4.8 | 16.1 | 0.00 | 0.00 | 0.00 | 96 | 1008.2 |
| 20260506082048 | 25 | 150 | 4.8 | 16.1 | 0.00 | 0.00 | 0.00 | 96 | 1008.2 |
| 20260506081535 | 25 | 156 | 4.8 | 16.1 | 0.00 | 0.00 | 0.00 | 96 | 1008.3 |
| 20260506081032 | 25 | 154 | 6.4 | 16.1 | 0.00 | 0.00 | 0.00 | 96 | 1008.4 |
| 20260506080505 | 25 | 114 | 6.4 | 19.3 | 0.00 | 0.00 | 0.00 | 96 | 1008.3 |
| 20260506073316 | 25 | 178 | 6.4 | 16.1 | 0.00 | 0.00 | 0.00 | 95 | 1008.5 |
| 20260506073046 | 25 | 131 | 4.8 | 12.9 | 0.00 | 0.00 | 0.00 | 95 | 1008.5 |
| 20260506072314 | 25 | 118 | 6.4 | 12.9 | 0.00 | 0.00 | 0.00 | 95 | 1008.7 |
| 20260506071813 | 25 | 218 | 4.8 | 12.9 | 0.00 | 0.00 | 0.00 | 95 | 1008.7 |
| 20260506071313 | 25 | 154 | 4.8 | 14.5 | 0.00 | 0.00 | 0.00 | 95 | 1008.7 |
| 20260506070811 | 25 | 179 | 4.8 | 14.5 | 0.00 | 0.00 | 0.00 | 95 | 1008.7 |
| 20260506070310 | 25 | 159 | 6.4 | 22.5 | 0.00 | 0.00 | 0.00 | 95 | 1008.8 |
| 20260506062054 | 25 | 142 | 4.8 | 11.3 | 0.00 | 0.00 | 0.00 | 95 | 1009.0 |
| 20260506061551 | 25 | 173 | 4.8 | 12.9 | 0.00 | 0.00 | 0.00 | 95 | 1009.0 |
| 20260506061047 | 25 | 163 | 4.8 | 12.9 | 0.00 | 0.00 | 0.00 | 95 | 1009.0 |
| 20260506060545 | 25 | 168 | 6.4 | 20.9 | 0.00 | 0.00 | 0.00 | 95 | 1009.1 |
| 20260506051315 | 25 | 162 | 9.7 | 19.3 | 0.00 | 0.00 | 0.00 | 94 | 1008.9 |
| 20260506050749 | 25 | 143 | 8.0 | 19.3 | 0.00 | 0.00 | 0.00 | 95 | 1009.0 |
| 20260506050246 | 25 | 170 | 8.0 | 19.3 | 0.00 | 0.00 | 0.00 | 95 | 1009.0 |
| 20260506050235 | 25 | 141 | 6.4 | 14.5 | 0.00 | 0.00 | 0.00 | 95 | 1009.0 |
| 20260506044627 | 25 | 150 | 6.4 | 16.1 | 0.00 | 0.00 | 0.00 | 95 | 1009.1 |
| 20260506044154 | 25 | 174 | 6.4 | 16.1 | 0.00 | 0.00 | 0.00 | 95 | 1009.0 |
| 20260506043558 | 25 | 144 | 6.4 | 16.1 | 0.00 | 0.00 | 0.00 | 95 | 1008.9 |
| 20260506043302 | 25 | 116 | 6.4 | 16.1 | 0.00 | 0.00 | 0.00 | 95 | 1008.9 |
| 20260506042528 | 25 | 181 | 4.8 | 16.1 | 0.00 | 0.00 | 0.00 | 95 | 1008.8 |
| 20260506042007 | 25 | 159 | 4.8 | 14.5 | 0.00 | 0.00 | 0.00 | 95 | 1008.9 |
| 20260506041437 | 25 | 204 | 4.8 | 19.3 | 0.00 | 0.00 | 0.00 | 95 | 1009.0 |
| 20260506040932 | 25 | 156 | 6.4 | 17.7 | 0.00 | 0.00 | 0.00 | 95 | 1009.0 |
| 20260506040639 | 25 | 156 | 6.4 | 19.3 | 0.00 | 0.00 | 0.00 | 94 | 1008.9 |
| 20260506035839 | 25 | 115 | 6.4 | 22.5 | 0.00 | 0.00 | 0.00 | 94 | 1008.9 |
| 20260506035608 | 25 | 139 | 8.0 | 22.5 | 0.00 | 0.00 | 0.00 | 94 | 1008.8 |
| 20260506034810 | 25 | 177 | 9.7 | 24.1 | 0.00 | 0.00 | 0.00 | 94 | 1008.7 |
| 20260506034243 | 25 | 145 | 9.7 | 24.1 | 0.00 | 0.00 | 0.00 | 93 | 1008.6 |
| 20260506033740 | 25 | 200 | 8.0 | 17.7 | 0.00 | 0.00 | 0.00 | 93 | 1008.6 |
| 20260506033213 | 25 | 177 | 9.7 | 19.3 | 0.00 | 0.00 | 0.00 | 93 | 1008.5 |
| 20260506032711 | 25 | 149 | 9.7 | 19.3 | 0.00 | 0.00 | 0.00 | 93 | 1008.4 |
| 20260506032144 | 25 | 116 | 8.0 | 19.3 | 0.00 | 0.00 | 0.00 | 93 | 1008.4 |
| 20260506031640 | 25 | 179 | 8.0 | 20.9 | 0.00 | 0.00 | 0.00 | 93 | 1008.4 |
| 20260506031114 | 25 | 159 | 6.4 | 20.9 | 0.00 | 0.00 | 0.00 | 93 | 1008.4 |
| 20260506030548 | 25 | 169 | 6.4 | 14.5 | 0.00 | 0.00 | 0.00 | 93 | 1008.3 |
| 20260506030047 | 25 | 187 | 8.0 | 19.3 | 0.00 | 0.00 | 0.00 | 93 | 1008.3 |
| 20260506025518 | 25 | 140 | 8.0 | 19.3 | 0.00 | 0.00 | 0.00 | 93 | 1008.2 |
| 20260506024951 | 25 | 153 | 8.0 | 19.3 | 0.00 | 0.00 | 0.00 | 92 | 1008.1 |
| 20260506024448 | 26 | 149 | 9.7 | 19.3 | 0.00 | 0.00 | 0.00 | 92 | 1008.1 |
| 20260506023923 | 26 | 182 | 9.7 | 19.3 | 0.00 | 0.00 | 0.00 | 92 | 1008.0 |
| 20260506023358 | 26 | 156 | 8.0 | 19.3 | 0.00 | 0.00 | 0.00 | 91 | 1007.9 |
| 20260506022853 | 26 | 119 | 8.0 | 17.7 | 0.00 | 0.00 | 0.00 | 91 | 1007.8 |
| 20260506022557 | 26 | 223 | 8.0 | 17.7 | 0.00 | 0.00 | 0.00 | 91 | 1007.7 |
| 20260506021757 | 26 | 143 | 8.0 | 16.1 | 0.00 | 0.00 | 0.00 | 91 | 1007.6 |
| 20260506021254 | 26 | 158 | 6.4 | 14.5 | 0.00 | 0.00 | 0.00 | 91 | 1007.6 |
| 20260506020758 | 26 | 160 | 8.0 | 19.3 | 0.00 | 0.00 | 0.00 | 91 | 1007.5 |
| 20260506020252 | 26 | 166 | 11.3 | 22.5 | 0.00 | 0.00 | 0.00 | 90 | 1007.5 |
| 20260506015728 | 26 | 120 | 8.0 | 22.5 | 0.00 | 0.00 | 0.00 | 90 | 1007.5 |
| 20260506015456 | 26 | 141 | 6.4 | 12.9 | 0.00 | 0.00 | 0.00 | 90 | 1007.4 |
| 20260506014705 | 26 | 159 | 6.4 | 16.1 | 0.00 | 0.00 | 0.00 | 90 | 1007.3 |
| 20260506014206 | 26 | 166 | 4.8 | 14.5 | 0.00 | 0.00 | 0.00 | 89 | 1007.2 |
| 20260506013911 | 26 | 189 | 6.4 | 16.1 | 0.00 | 0.00 | 0.00 | 89 | 1007.1 |
| 20260506013122 | 26 | 198 | 8.0 | 16.1 | 0.00 | 0.00 | 0.00 | 89 | 1007.0 |
| 20260506012621 | 26 | 183 | 8.0 | 14.5 | 0.00 | 0.00 | 0.00 | 89 | 1006.9 |
| 20260506011542 | 26 | 179 | 9.7 | 22.5 | 0.00 | 0.00 | 0.00 | 88 | 1006.8 |
| 20260506011042 | 26 | 183 | 6.4 | 19.3 | 0.00 | 0.00 | 0.00 | 88 | 1006.8 |
| 20260506010525 | 26 | 150 | 6.4 | 19.3 | 0.00 | 0.00 | 0.00 | 88 | 1006.7 |
| 20260506010229 | 26 | 154 | 8.0 | 19.3 | 0.00 | 0.00 | 0.00 | 87 | 1006.7 |
| 20260506005459 | 26 | 172 | 9.7 | 19.3 | 0.00 | 0.00 | 0.00 | 87 | 1006.7 |
| 20260506004934 | 26 | 125 | 9.7 | 19.3 | 0.00 | 0.00 | 0.00 | 87 | 1006.7 |
| 20260506004412 | 27 | 158 | 9.7 | 22.5 | 0.00 | 0.00 | 0.00 | 86 | 1006.6 |
| 20260506003858 | 27 | 120 | 9.7 | 22.5 | 0.00 | 0.00 | 0.00 | 86 | 1006.5 |
| 20260506003353 | 27 | 184 | 8.0 | 19.3 | 0.00 | 0.00 | 0.00 | 86 | 1006.4 |
| 20260506002900 | 27 | 166 | 11.3 | 25.7 | 0.00 | 0.00 | 0.00 | 85 | 1006.4 |
| 20260506002336 | 27 | 176 | 12.9 | 25.7 | 0.00 | 0.00 | 0.00 | 85 | 1006.4 |
| 20260506001834 | 27 | 183 | 11.3 | 24.1 | 0.00 | 0.00 | 0.00 | 85 | 1006.4 |
| 20260506001333 | 27 | 159 | 11.3 | 20.9 | 0.00 | 0.00 | 0.00 | 85 | 1006.5 |
| 20260506000829 | 27 | 158 | 11.3 | 19.3 | 0.00 | 0.00 | 0.00 | 85 | 1006.5 |
| 20260506000302 | 27 | 198 | 11.3 | 20.9 | 0.00 | 0.00 | 0.00 | 84 | 1006.3 |
| 20260505235734 | 27 | 178 | 14.5 | 29.0 | 0.00 | 0.00 | 0.00 | 84 | 1006.4 |
| 20260505235233 | 27 | 166 | 12.9 | 29.0 | 0.00 | 0.00 | 0.00 | 84 | 1006.4 |
| 20260505234727 | 27 | 164 | 9.7 | 22.5 | 0.00 | 0.00 | 0.00 | 84 | 1006.4 |
| 20260505234202 | 27 | 146 | 9.7 | 22.5 | 0.00 | 0.00 | 0.00 | 84 | 1006.3 |
| 20260505233637 | 27 | 133 | 9.7 | 19.3 | 0.00 | 0.00 | 0.00 | 84 | 1006.4 |
| 20260505233107 | 27 | 174 | 9.7 | 19.3 | 0.00 | 0.00 | 0.00 | 84 | 1006.4 |
| 20260505232606 | 27 | 180 | 8.0 | 16.1 | 0.00 | 0.00 | 0.00 | 84 | 1006.3 |
| 20260505232039 | 27 | 185 | 9.7 | 22.5 | 0.00 | 0.00 | 0.00 | 84 | 1006.4 |
| 20260505231742 | 27 | 181 | 9.7 | 22.5 | 0.00 | 0.00 | 0.00 | 84 | 1006.4 |
| 20260505231009 | 27 | 180 | 9.7 | 24.1 | 0.00 | 0.00 | 0.00 | 84 | 1006.4 |
| 20260505230442 | 27 | 166 | 11.3 | 24.1 | 0.00 | 0.00 | 0.00 | 84 | 1006.5 |
| 20260505225940 | 27 | 182 | 11.3 | 29.0 | 0.00 | 0.00 | 0.00 | 84 | 1006.5 |
| 20260505225413 | 27 | 184 | 11.3 | 29.0 | 0.00 | 0.00 | 0.00 | 84 | 1006.4 |
| 20260505224847 | 27 | 213 | 11.3 | 24.1 | 0.00 | 0.00 | 0.00 | 83 | 1006.4 |
| 20260505224615 | 27 | 166 | 11.3 | 24.1 | 0.00 | 0.00 | 0.00 | 84 | 1006.5 |
| 20260505223840 | 27 | 214 | 11.3 | 24.1 | 0.00 | 0.00 | 0.00 | 84 | 1006.4 |
| 20260505223338 | 27 | 162 | 11.3 | 25.7 | 0.00 | 0.00 | 0.00 | 84 | 1006.4 |
| 20260505222811 | 28 | 176 | 9.7 | 25.7 | 0.00 | 0.00 | 0.00 | 84 | 1006.4 |
| 20260505222245 | 28 | 206 | 11.3 | 25.7 | 0.00 | 0.00 | 0.00 | 84 | 1006.5 |
| 20260505221718 | 28 | 150 | 11.3 | 25.7 | 0.00 | 0.00 | 0.00 | 84 | 1006.5 |
| 20260505221214 | 28 | 173 | 11.3 | 22.5 | 0.00 | 0.00 | 0.00 | 84 | 1006.6 |
| 20260505220648 | 28 | 125 | 11.3 | 25.7 | 0.00 | 0.00 | 0.00 | 83 | 1006.6 |
| 20260505220121 | 28 | 192 | 11.3 | 25.7 | 0.00 | 0.00 | 0.00 | 83 | 1006.6 |
| 20260505215553 | 28 | 185 | 11.3 | 24.1 | 0.00 | 0.00 | 0.00 | 83 | 1006.7 |
| 20260505215026 | 28 | 171 | 12.9 | 24.1 | 0.00 | 0.00 | 0.00 | 83 | 1006.8 |
| 20260505214523 | 28 | 160 | 12.9 | 24.1 | 0.00 | 0.00 | 0.00 | 82 | 1006.8 |
| 20260505214000 | 28 | 231 | 11.3 | 24.1 | 0.00 | 0.00 | 0.00 | 82 | 1006.9 |
| 20260505213430 | 28 | 218 | 9.7 | 24.1 | 0.00 | 0.00 | 0.00 | 82 | 1006.8 |
| 20260505212926 | 28 | 177 | 9.7 | 17.7 | 0.00 | 0.00 | 0.00 | 83 | 1006.8 |
| 20260505212405 | 28 | 127 | 8.0 | 27.4 | 0.00 | 0.00 | 0.00 | 83 | 1006.9 |
| 20260505212131 | 28 | 177 | 11.3 | 27.4 | 0.00 | 0.00 | 0.00 | 84 | 1006.9 |
| 20260505211356 | 28 | 231 | 12.9 | 30.6 | 0.00 | 0.00 | 0.00 | 83 | 1007.0 |
| 20260505210830 | 28 | 173 | 12.9 | 30.6 | 0.00 | 0.00 | 0.00 | 82 | 1007.0 |
| 20260505210302 | 28 | 170 | 11.3 | 22.5 | 0.00 | 0.00 | 0.00 | 83 | 1007.2 |
| 20260505205758 | 28 | 196 | 9.7 | 24.1 | 0.00 | 0.00 | 0.00 | 82 | 1007.2 |
| 20260505205253 | 28 | 231 | 9.7 | 24.1 | 0.00 | 0.00 | 0.00 | 83 | 1007.3 |